Location: Unspecified
(46.9000°N, 7.4000°E)
Time: 11:57:45
(UTC+00:00)

Cosmos 1455 Rocket - Pass Details

Date: 05 December 2025
Orbit: 599 x 620 km, 82.5° (Epoch: 20 April)

Event Time Altitude Azimuth Distance (km) Brightness Sun altitude
Rises 16:59:08 0° 210° (SSW) 2,841 7.3 -12.6°
Reaches altitude 10° 17:01:29 10° 220° (SW) 1,946 6.6 -13.0°
Maximum altitude 17:05:26 35° 286° (WNW) 995 4.7 -13.6°
Drops below altitude 10° 17:09:26 10° 353° (N) 1,972 5.5 -14.3°
Sets 17:11:50 0° 2° (N) 2,885 6.3 -14.7°
